Regional Weather Roundup
Issued by NWS

Home | Current Version | Previous Version | Graphics & Text | Print | Product List | Glossary Off
Versions: 1 2 3 4 5 6 7 8 9 10 11 12 13 14 15 16 17 18 19 20 21 22 23 24 25 26 27 28 29 30 31 32 33 34 35 36 37 38 39 40 41 42 43 44 45 46 47 48 49 50

000
ASUS43 KMPX 040010
RWRMN
WEATHER ROUNDUP FOR MINNESOTA
NATIONAL WEATHER SERVICE TWIN CITIES/CHANHASSEN MN
600 PM CST SAT DEC 03 2016


NOTE: "FAIR" INDICATES FEW OR NO CLOUDS BELOW 12,000 FEET WITH NO
SIGNIFICANT WEATHER AND/OR OBSTRUCTIONS TO VISIBILITY. N/A MEANS
CURRENT SKY AND/OR WEATHER CONDITIONS ARE NOT AVAILABLE.

MNZ060>063-068>070-040100-
   Twin Cities Metro

CITY           SKY/WX    TMP DP  RH WIND       PRES   REMARKS
TWIN CITIES    CLOUDY    31  22  69 SE7       30.22F WCI  24
6HR MIN TEMP:  29; 6HR MAX TEMP:  32;

ST PAUL        CLOUDY    31  24  75 SE9       30.24S WCI  23
CRYSTAL        CLOUDY    31  21  66 SE8       30.21S WCI  23
BLAINE         CLOUDY    32  25  74 SE7       30.21F WCI  26
LAKEVILLE      CLOUDY    30  25  80 SE6       30.21S WCI  24
EDEN PRAIRIE   CLOUDY    32  23  69 SE9       30.20F WCI  24
6HR MIN TEMP:  30; 6HR MAX TEMP:  34;

SOUTH ST PAUL  CLOUDY    32  23  70 SE3       30.23F
LAKE ELMO      CLOUDY    32  25  74 SE5       30.23F WCI  27
$$
MNZ001>005-007-008-013>017-022>024-027-028-040100-
   Northwest Minnesota

CITY           SKY/WX    TMP DP  RH WIND       PRES   REMARKS
BEMIDJI        PTCLDY    24  19  80 SE13      30.10S WCI  12
HALLOCK        MOCLDY    27  23  86 SE13      30.02S WCI  16
ROSEAU         MOCLDY    27  21  80 SE8       30.06F WCI  18
WARROAD        CLOUDY    27  21  80 SE13      30.08F WCI  16
THIEF RVR FALL   N/A    N/A N/A N/A MISG        N/A
CROOKSTON      CLOUDY    28  23  80 SE13      30.04F WCI  18
FOSSTON        CLEAR     23  18  80 SE8       30.06F WCI  14
DETROIT LAKES  LGT SNOW  30  28  93 SE14      30.07S WCI  20
MOORHEAD       LGT RAIN  30  28  93 SE17G24   30.04F WCI  18
PARK RAPIDS    CLOUDY    27  17  66 SE13      30.09F WCI  16
$$
MNZ006-009>011-018-025>026-040100-
   North Central Minnesota

CITY           SKY/WX    TMP DP  RH WIND       PRES   REMARKS
FLAG ISLAND    CLOUDY    27  21  80 SE20G26   30.08S WCI  13
INTL FALLS     CLOUDY    26  19  74 SE6       30.13F WCI  19
6HR MIN TEMP:  26; 6HR MAX TEMP:  27;

WASKISH        CLOUDY    25  19  80 SE6       30.12S WCI  18
BIG FORK       CLOUDY    27  19  74 S6        30.14S WCI  20
LONGVILLE      CLOUDY    27  19  74 S9        30.15R WCI  17
GRAND RAPIDS   CLOUDY    27  20  75 S10       30.17S WCI  17
CRANE LAKE     CLOUDY    27  19  74 CALM      30.18S
ORR            CLOUDY    27  18  69 S8        30.13R WCI  18
COOK           CLOUDY    27  19  74 S6        30.16S WCI  20
$$
MNZ012-019>021-037-040100-
   Northeast Minnesota

CITY           SKY/WX    TMP DP  RH WIND       PRES   REMARKS
DULUTH         CLOUDY    29  21  72 S9        30.18S WCI  20
6HR MIN TEMP:  27; 6HR MAX TEMP:  29; 6HR PCP: TRACE;

ELY            CLOUDY    27  21  80 S6        30.16F WCI  20
HIBBING        CLOUDY    26  19  74 S5        30.16S WCI  20
EVELETH        MOCLDY    28  19  71 S7        30.18R WCI  20
DULUTH HARBOR  CLOUDY    32  25  74 S6        30.24S WCI  26
TWO HARBORS    CLOUDY    34  23  64 S6        30.18S WCI  29
SILVER BAY     CLOUDY    28  27  93 CALM      30.18S
GRAND MARAIS     N/A     34  28  79 CALM      30.22F
G MARAIS ARPRT CLOUDY    27  21  80 S3        30.17S
$$
MNZ029>031-032-039>041-046>048-054>057-064-040100-
   West Central Minnesota

CITY           SKY/WX    TMP DP  RH WIND       PRES   REMARKS
FERGUS FALLS   LGT SNOW  30  30 100 SE15G23   30.10F WCI  19
WHEATON        LGT SNOW N/A N/A N/A SE16      30.06F
MORRIS         LGT SNOW  32  30  93 SE14      30.07F WCI  22
ALEXANDRIA     CLOUDY    30  27  88 SE12      30.10F WCI  20
ELBOW LAKE     FLURRIES  30  28  93 E13       30.07F WCI  20
WADENA         LGT SNOW  27  25  93 SE10      30.11S WCI  17
GLENWOOD       PTCLDY    30  27  86 SE13G18   30.11F WCI  20
APPLETON       LGT SNOW  34  32  93 SE8       30.08F WCI  27
BENSON         LGT SNOW  32  30  93 S12G17    30.10F WCI  23
ORTONVILLE     MIX PCPN  34  30  86 SE12      30.05F WCI  25
MADISON        CLOUDY    37  36  93 SE12      30.07F
WILLMAR        CLOUDY    34  30  86 SE15      30.14F FOG     WCI  24
$$
MNZ033>034-036-042>043-049>051-058-059-040100-
   Central Minnesota

CITY           SKY/WX    TMP DP  RH WIND       PRES   REMARKS
ST CLOUD       CLOUDY    30  23  75 SE9       30.18S WCI  22
6HR MIN TEMP:  27; 6HR MAX TEMP:  30;

PAYNESVILLE    CLOUDY    32  27  84 SE9       30.15F WCI  24
AITKIN         CLOUDY    30  19  64 S5        30.16R WCI  25
PINE RIVER     CLOUDY    27  21  80 SE8       30.17F WCI  18
BRAINERD       CLOUDY    27  20  75 SE8       30.16F WCI  19
STAPLES        LGT SNOW  27  21  80 SE8       30.13S WCI  18
LONG PRAIRIE   CLOUDY    28  27  93 E8        30.13F WCI  20
LITTLE FALLS   CLOUDY    30  21  69 SE8       30.17S WCI  23
LITCHFIELD     CLOUDY    34  28  80 SE8       30.16F WCI  27
BUFFALO        CLOUDY    31  24  73 SE5       30.20F WCI  27
MAPLE LAKE     CLOUDY    32  27  80 SE5       30.20S WCI  27
$$
MNZ037-044-045-052-053-040100-
   East Central Minnesota

CITY           SKY/WX    TMP DP  RH WIND       PRES   REMARKS
PRINCETON      CLOUDY    30  21  69 SE6       30.19F WCI  24
MORA           CLOUDY    30  21  69 SE5       30.22F WCI  25
CAMBRIDGE      CLOUDY    30  21  69 SE6       30.19F WCI  24
RUSH CITY      CLOUDY    30  21  69 S7        30.22F WCI  23
MOOSE LAKE     CLOUDY    30  21  69 S3        30.18F
HINCKLEY       CLOUDY    32  23  69 S7        30.21F WCI  26
CLOQUET        CLOUDY    28  18  64 S8        30.18F WCI  20
MCGREGOR       CLOUDY    30  23  74 S6        30.18F WCI  24
$$
MNZ071>073-080-081-089-090-097-098-040100-
   Southwest Minnesota

CITY           SKY/WX    TMP DP  RH WIND       PRES   REMARKS
MONTEVIDEO     LGT RAIN  34  34 100 S8        30.12F WCI  27
GRANITE FALLS  LGT RAIN  36  33  91 SE10      30.13F
CANBY          CLOUDY    36  32  88 SE12      30.07F
MARSHALL       MIX PCPN  36  30  80 S16       30.09F
REDWOOD FALLS  LGT SNOW  33  30  88 SE12      30.14F FOG     WCI  24
OLIVIA         LGT SNOW  34  32  93 SE13      30.13F WCI  25
PIPESTONE      LGT SNOW  34  32  93 S15       30.06F WCI  24
WINDOM         LGT SNOW  36  34  93 CALM      30.13F
WORTHINGTON    LGT SNOW  33  31  92 S14       30.11F FOG     WCI  23
JACKSON        LGT SNOW  32  32 100 S12       30.15S WCI  23
TRACY          FLURRIES  35  32  90 S12G17    30.11S WCI  26
SLAYTON        LGT SNOW  32  31  96 S14       30.11S WCI  22
$$
MNZ065>067-074>077-082>085-091>093-040100-
   South Central Minnesota

CITY           SKY/WX    TMP DP  RH WIND       PRES   REMARKS
MANKATO        CLOUDY    34  28  80 SE9       30.19F WCI  26
NEW ULM        CLOUDY    34  28  80 SE9       30.16F WCI  26
ST JAMES       LGT RAIN  36  34  93 S9        30.17F
FAIRMONT       MIX PCPN  34  33  96 S14       30.17F WCI  25
GLENCOE        CLOUDY    33  30  88 SE8       30.17F WCI  26
FARIBAULT      CLOUDY    32  27  80 SE6       30.21F WCI  26
OWATONNA       PTCLDY    32  27  80 SE8       30.20F WCI  25
WASECA         CLOUDY    32  28  86 SE9       30.20F WCI  24
ALBERT LEA     CLOUDY    36  34  93 S8        30.19F
$$
MNZ078>079-086>088-094>096-040100-
   Southeast Minnesota

CITY           SKY/WX    TMP DP  RH WIND       PRES   REMARKS
ROCHESTER      CLOUDY    30  25  81 SE9       30.21F WCI  22
6HR MIN TEMP:  29; 6HR MAX TEMP:  31;

RED WING       CLOUDY    32  21  64 SE8       30.23F WCI  25
STANTON        CLOUDY    32  25  73 SE6       30.20F WCI  27
DODGE CENTER   CLOUDY    30  27  86 SE8       30.20F WCI  23
WINONA         CLOUDY    32  25  74 CALM      30.26F
AUSTIN         FLURRIES  30  28  93 SE6       30.20F WCI  24
PRESTON        CLOUDY    30  23  74 SE5       30.22F WCI  25
$$
ABBREVIATIONS USED IN REMARKS
   TC - TEMPERATURES IN CELSIUS
  WCI - WIND CHILL INDEX
   HX - HEAT INDEX
  VSB - VISIBILITY
$$




USA.gov is the U.S. government's official web portal to all federal, state and local government web resources and services.